This is the latest recevied weather packets stored in our database for station/object 9W2SHB-13. If no packets are shown the sender has not sent any weather packets the latest 10 day(s).
| Time | Temp. | Humidity | Pressure | Rain* | Wind** | Luminosity | Snow |
|---|---|---|---|---|---|---|---|
| 1777792507 | 32.78° C | 59% | 1025.5 hPa | - | - | - | - |
| 1777791607 | 32.78° C | 58% | 1026 hPa | - | - | - | - |
| 1777790707 | 32.78° C | 58% | 1026.2 hPa | - | - | - | - |
| 1777789807 | 32.78° C | 57% | 1026.6 hPa | - | - | - | - |
| 1777788906 | 32.78° C | 57% | 1026.8 hPa | - | - | - | - |
| 1777788007 | 32.22° C | 57% | 1027 hPa | - | - | - | - |
| 1777787106 | 32.22° C | 59% | 1027.3 hPa | - | - | - | - |
| 1777786207 | 31.67° C | 59% | 1027.7 hPa | - | - | - | - |
| 1777785307 | 31.67° C | 61% | 1028.1 hPa | - | - | - | - |
| 1777784406 | 31.67° C | 61% | 1028.6 hPa | - | - | - | - |
| 1777783507 | 31.67° C | 61% | 1028.9 hPa | - | - | - | - |
| 1777782606 | 31.11° C | 62% | 1029.3 hPa | - | - | - | - |
| 1777781707 | 31.11° C | 62% | 1029.4 hPa | - | - | - | - |
| 1777780807 | 31.11° C | 63% | 1029.6 hPa | - | - | - | - |
| 1777779907 | 30.56° C | 64% | 1029.7 hPa | - | - | - | - |
| 1777779007 | 30.56° C | 64% | 1029.8 hPa | - | - | - | - |
| 1777778107 | 30.56° C | 65% | 1030 hPa | - | - | - | - |
| 1777777207 | 30.56° C | 65% | 1029.9 hPa | - | - | - | - |
| 1777776307 | 30° C | 66% | 1030 hPa | - | - | - | - |
| 1777761006 | 28.89° C | 65% | 1028 hPa | - | - | - | - |
| 1777760106 | 28.89° C | 66% | 1028 hPa | - | - | - | - |
| 1777759207 | 28.89° C | 65% | 1027.8 hPa | - | - | - | - |
| 1777756507 | 29.44° C | 65% | 1027.6 hPa | - | - | - | - |
| 1777753807 | 29.44° C | 65% | 1027.3 hPa | - | - | - | - |
| 1777752007 | 29.44° C | 65% | 1027.4 hPa | - | - | - | - |
* Rain since midnight (hover to see other rain measurements)
** Current wind speed in m/s (hover to see current wind gust speed)